Theta_e
306 307 307 307 306 307 307 307 306 306 306 306 306 306 306 307 307 307 307 307 307 307 308 308 308 308 308 309 310 312 313 313 314 313 314 316 315 316 316 315 314 313 313 313 313 313 313 313 313 313 317 319 317 317 316 318 324 332 335 326 318 320 321 323 328 324 318 320 322 319 316 315 317 318 314 312 315 317 316 315 316 313 311 312 311 310 310 312
307 308 308 307 306 306 307 307 308 307 307 307 307 307 307 307 306 307 307 307 308 307 308 308 308 308 309 311 312 314 315 314 313 312 314 317 316 316 317 315 314 313 313 313 313 313 314 315 312 314 321 320 315 318 320 316 322 339 332 316 324 332 326 324 328 325 319 317 318 318 316 314 315 315 312 314 318 318 317 316 315 316 315 313 309 309 310 311
307 308 308 308 307 306 306 307 308 308 308 308 308 308 307 307 307 307 307 307 307 307 308 308 308 309 311 312 314 316 315 313 313 313 316 318 316 315 316 314 313 313 313 313 313 312 314 315 312 316 324 320 316 321 325 319 320 330 325 319 334 335 324 323 324 322 319 316 317 319 315 314 315 313 312 313 317 317 316 317 315 316 316 315 311 306 307 309
307 308 308 308 307 307 307 307 308 308 308 308 308 309 308 308 308 308 309 308 308 308 308 309 311 311 313 314 315 316 315 314 315 315 316 317 316 315 315 314 313 313 313 313 313 313 314 313 312 318 322 321 320 321 322 321 318 318 321 327 332 323 319 323 324 324 320 316 315 317 314 315 315 313 314 313 315 316 315 315 316 315 313 313 311 303 303 306
307 308 308 308 308 307 307 308 309 309 309 309 309 309 309 308 308 309 310 311 311 310 311 312 313 314 314 315 316 317 315 317 316 313 315 316 315 315 314 313 313 313 313 314 314 314 313 312 314 321 322 318 320 319 318 320 317 318 323 328 328 320 318 321 324 323 318 315 314 316 315 314 313 313 315 314 315 315 313 313 313 312 309 309 309 304 303 303
307 307 308 308 308 307 308 308 308 309 309 309 309 309 309 308 309 309 311 313 313 313 314 314 314 315 315 315 317 317 314 315 314 313 315 315 314 314 314 314 313 313 313 315 314 313 315 314 316 322 322 318 317 315 315 317 315 319 323 322 323 320 318 320 321 319 315 315 315 316 313 311 313 314 314 314 314 314 312 310 309 308 305 304 305 304 305 305
307 307 308 308 309 308 308 308 309 308 309 309 309 309 310 310 311 312 313 314 314 314 314 314 314 314 314 314 317 320 318 317 315 315 316 314 313 314 314 314 313 312 313 314 313 315 317 316 317 320 320 317 315 315 313 314 314 318 323 322 320 317 320 322 320 319 315 315 316 313 310 311 314 314 313 312 312 312 308 304 304 304 303 303 304 303 303 304
309 309 309 309 309 309 308 309 309 309 309 310 311 311 312 313 312 313 313 314 314 314 314 313 313 313 313 313 317 323 323 321 318 318 319 315 314 314 314 314 313 313 313 313 314 315 316 315 316 315 317 315 313 315 312 312 317 319 323 323 317 316 322 322 318 318 315 314 313 310 312 314 312 312 312 311 311 309 304 302 303 304 303 303 303 303 302 301
311 311 311 311 310 310 310 309 309 310 310 311 312 312 313 313 313 313 314 314 314 314 313 313 313 311 312 313 316 323 322 319 319 319 320 318 318 317 315 314 313 313 312 313 313 312 313 316 316 313 315 315 312 314 314 313 318 320 321 321 316 315 317 316 316 316 315 314 312 310 315 314 309 311 311 310 309 305 304 306 305 305 304 303 302 302 301 300
313 313 314 313 312 311 311 311 310 310 311 312 312 312 313 315 315 315 315 316 315 315 314 313 313 312 312 313 317 322 319 320 322 320 320 319 319 317 314 314 313 313 312 313 313 311 313 315 313 311 315 316 311 312 313 313 315 317 318 317 315 315 314 315 316 314 312 313 312 311 315 313 309 312 313 310 305 304 310 310 305 305 304 302 301 300 300 300
314 315 314 314 314 313 311 311 310 310 312 313 313 314 315 316 316 317 317 317 317 316 315 314 313 312 313 314 319 321 317 320 322 320 320 318 316 315 314 314 313 312 313 313 312 311 312 312 309 310 314 314 312 313 313 313 312 313 314 314 317 316 314 316 316 313 310 312 313 312 315 313 309 312 314 309 303 306 315 312 305 305 303 301 301 300 299 299
315 315 315 314 315 314 312 311 310 311 313 314 315 316 316 317 317 318 318 318 317 316 315 314 312 312 312 313 317 317 315 318 321 319 319 317 315 314 314 314 313 313 313 313 313 313 313 312 311 313 315 313 314 314 313 312 311 312 313 314 318 318 316 315 314 313 311 313 314 313 315 317 316 314 310 306 303 307 314 310 306 304 302 302 301 299 299 298
316 316 315 315 315 314 313 311 311 313 314 316 317 317 318 318 318 319 318 318 317 316 315 312 311 311 311 314 315 313 314 317 318 319 317 316 314 314 315 315 314 313 314 314 313 313 313 313 313 314 314 316 318 312 313 314 311 313 313 312 316 317 320 314 309 312 312 312 313 313 317 326 328 315 307 306 305 314 316 307 305 303 301 301 300 300 299 298
316 317 316 316 316 315 312 311 313 314 315 316 317 318 319 318 319 319 317 316 315 315 313 311 311 311 312 315 314 311 314 314 316 318 316 314 314 315 316 315 315 315 314 314 313 313 314 312 312 313 312 315 315 309 315 321 318 315 311 316 319 315 324 321 311 313 313 312 311 313 318 325 327 312 306 305 305 318 318 305 304 302 301 300 299 299 299 298
316 317 317 317 317 315 312 311 313 314 316 317 318 319 319 319 319 317 315 315 314 313 312 310 311 311 313 315 312 311 314 314 316 318 316 316 316 316 315 314 314 314 314 313 312 312 312 312 313 315 313 311 313 315 321 325 327 324 314 324 327 316 325 326 314 314 314 312 309 313 319 321 321 311 305 304 305 318 315 304 303 302 301 300 299 299 298 298
315 317 317 317 316 314 312 312 313 315 316 317 319 320 319 319 318 316 314 312 312 312 311 312 312 311 315 316 313 313 314 315 316 317 317 317 316 316 314 313 313 313 313 312 312 312 311 314 313 313 314 312 318 327 328 324 328 327 317 322 328 319 321 321 315 314 314 312 310 313 317 318 318 311 306 304 308 319 314 305 303 301 301 299 298 298 297 297
316 317 317 317 316 313 312 312 313 316 317 319 319 319 319 319 317 315 314 312 314 315 313 314 313 313 315 314 313 314 313 313 315 316 318 317 316 316 314 312 311 310 312 311 312 312 311 314 312 312 316 315 317 326 327 323 325 327 318 316 322 319 317 319 319 316 313 314 313 313 313 315 316 312 309 305 308 317 311 304 303 301 300 299 298 298 297 297
316 316 317 318 317 314 312 312 314 316 318 319 319 320 319 318 316 314 315 315 315 315 314 312 312 315 317 314 314 314 313 313 315 316 316 316 315 314 313 311 308 309 312 312 312 313 313 315 317 318 318 314 315 319 323 324 326 329 323 318 321 318 316 319 319 315 314 315 315 315 314 316 317 314 311 305 305 311 307 302 302 300 300 299 298 298 297 296
317 318 319 319 318 315 312 313 315 316 318 318 319 319 317 315 315 314 314 315 317 317 317 316 314 319 320 315 314 313 313 313 314 314 314 315 313 311 312 309 310 313 313 315 312 313 316 318 318 319 317 314 315 317 319 321 322 325 325 324 326 322 319 319 317 315 312 313 315 315 315 317 317 315 311 305 303 305 303 301 301 300 299 299 298 297 296 296
318 319 320 319 319 316 313 313 315 317 318 318 318 318 318 319 319 318 316 315 319 318 319 319 317 319 318 315 313 313 313 313 313 314 313 313 311 311 311 309 314 315 315 321 316 311 315 318 318 318 317 317 315 314 315 317 317 318 318 321 322 321 320 317 316 317 311 312 318 316 315 317 316 314 308 304 305 305 303 302 301 300 299 298 298 297 296 296
318 319 320 319 319 316 314 315 316 318 318 317 318 318 323 326 322 321 322 321 317 314 318 319 314 317 316 312 313 313 314 314 312 313 312 312 311 312 313 312 316 317 317 323 317 310 313 317 319 318 316 316 314 312 311 312 314 314 314 316 318 317 317 315 313 315 311 313 319 316 315 317 316 313 305 304 308 306 303 302 301 300 299 298 297 297 296 296
318 319 319 319 319 316 314 316 317 318 318 318 318 317 318 320 318 317 320 325 321 314 316 316 312 315 314 311 312 312 315 318 315 313 311 312 311 313 315 316 319 321 317 317 316 313 315 318 318 315 314 313 313 312 311 311 312 313 314 314 316 316 317 318 315 314 313 313 319 319 315 315 315 308 303 303 305 302 300 300 300 299 298 297 297 296 295 295
319 318 319 319 318 316 315 316 318 318 318 318 318 317 316 316 316 315 317 326 327 319 317 319 317 318 317 314 313 312 316 319 319 316 312 311 313 314 316 316 318 320 316 315 318 319 320 321 317 312 313 313 313 314 313 313 312 314 315 314 317 317 317 323 320 315 314 311 315 317 313 314 313 306 303 302 301 300 299 299 298 297 297 296 295 295 294 294
319 318 319 319 317 315 315 317 319 319 319 318 318 319 318 317 317 316 318 324 326 322 319 318 318 321 321 316 313 314 317 318 320 317 311 312 314 313 316 317 317 319 316 316 318 319 322 321 315 313 314 314 314 315 314 314 315 317 317 315 317 317 317 322 319 316 318 315 313 312 316 322 319 312 308 303 301 301 299 299 298 297 296 296 295 294 294 293
319 318 319 318 316 315 316 319 319 319 319 318 319 320 318 318 316 315 321 326 327 324 318 314 316 321 319 314 314 316 317 318 320 316 310 311 314 314 315 315 316 319 317 315 315 316 319 316 314 317 316 314 315 316 317 317 317 320 321 317 316 317 318 319 316 315 320 323 315 310 322 334 328 321 313 305 303 303 300 300 299 297 296 296 296 295 294 294
319 318 318 317 315 315 317 319 319 320 319 318 320 320 318 318 316 315 323 331 330 326 321 318 319 320 316 313 314 316 321 320 313 310 310 310 312 314 315 314 314 319 317 315 315 317 317 313 313 317 317 316 317 318 319 317 317 321 321 318 315 314 315 317 316 316 323 324 314 309 318 329 329 327 317 306 306 304 301 301 299 298 297 296 296 295 294 294
318 317 317 316 314 316 318 319 319 319 320 321 321 320 318 318 315 314 322 331 330 325 323 319 317 317 314 310 312 320 327 320 310 308 310 310 310 311 317 317 314 315 315 316 321 320 317 314 314 315 317 318 317 320 319 315 320 325 319 318 319 316 318 319 317 318 322 321 317 316 315 318 324 322 311 305 308 305 302 302 300 298 297 296 296 295 294 294
318 317 317 315 314 317 318 319 319 318 321 322 320 319 318 316 315 317 328 335 330 322 320 317 313 312 310 307 311 319 318 314 315 313 307 308 310 310 317 320 318 317 314 318 326 320 314 315 318 317 317 318 318 321 319 315 321 323 315 316 319 319 321 322 320 320 317 315 322 325 316 315 325 322 307 305 309 307 305 304 301 299 297 296 295 294 294 293
317 317 316 314 315 317 318 320 319 319 321 320 318 319 317 315 317 322 329 333 328 319 317 315 310 309 310 309 311 314 310 310 316 313 306 308 309 309 315 317 318 316 311 316 325 320 312 313 317 319 319 320 319 317 314 315 319 315 310 315 317 317 320 321 322 322 316 316 324 326 318 317 327 327 313 308 312 312 309 305 301 300 298 296 295 294 294 294
316 316 315 314 315 317 318 319 320 321 320 318 318 317 315 318 322 328 330 331 328 319 313 312 311 311 313 314 313 312 310 311 311 310 310 311 310 310 310 311 315 316 313 316 320 318 312 309 311 317 318 319 317 311 308 313 314 310 314 322 321 319 321 321 323 320 317 322 325 321 317 316 322 328 321 313 313 312 309 305 302 299 298 297 296 295 294 294
316 316 315 314 315 317 318 319 320 321 318 317 317 315 317 323 325 332 332 328 326 320 313 313 312 311 315 318 317 312 310 311 310 312 313 311 312 313 311 310 315 320 319 318 318 316 313 310 312 315 314 314 316 312 308 309 311 314 321 326 322 321 321 320 323 320 320 328 324 315 314 314 319 326 319 312 308 305 306 305 302 300 299 297 296 295 294 293
317 317 315 314 315 317 319 319 320 320 317 315 316 316 322 326 326 332 329 323 327 322 318 318 312 311 315 316 316 312 312 313 311 313 316 313 314 314 314 316 318 322 322 319 320 318 316 316 315 312 310 313 319 318 311 309 312 317 322 324 324 324 323 324 324 321 323 325 316 312 315 314 319 322 316 312 307 302 303 303 300 300 299 297 297 296 294 293
317 317 316 314 315 317 318 319 320 319 316 314 316 318 324 329 329 331 326 324 329 321 317 319 314 314 315 314 315 311 312 314 311 312 314 313 315 314 314 315 316 322 323 317 318 319 320 320 314 311 312 314 318 319 317 316 315 316 320 324 325 325 328 332 328 320 320 319 312 311 314 317 321 319 313 310 305 299 299 300 299 299 297 296 296 295 295 294
317 317 317 316 316 317 318 319 320 319 315 315 320 321 324 329 331 331 327 326 325 319 318 318 314 314 315 316 317 314 313 314 311 312 313 312 315 316 316 313 311 320 324 317 316 319 322 324 318 316 316 314 314 316 321 322 316 314 318 320 322 326 330 332 330 325 322 319 314 310 313 324 326 314 304 302 299 296 297 297 297 298 296 295 295 295 295 294
317 317 317 317 316 317 318 318 320 319 316 317 322 324 325 328 330 331 329 326 323 321 319 316 314 314 314 315 316 314 315 315 311 313 314 314 317 319 320 316 312 318 322 318 318 317 319 325 322 315 312 312 314 315 317 319 316 313 313 316 320 324 326 322 320 320 318 319 319 315 318 325 318 305 298 299 298 296 296 296 296 297 296 295 295 294 294 294
318 317 318 318 317 318 318 318 320 318 317 320 323 324 325 328 328 329 328 324 323 320 316 316 318 317 316 316 315 313 314 316 315 313 313 314 316 317 319 319 314 314 317 320 322 319 319 324 320 312 310 311 311 313 314 317 318 314 312 318 319 316 323 323 314 310 312 317 319 317 320 319 311 306 301 299 299 297 295 296 296 296 295 295 295 294 294 294
318 318 317 318 318 318 318 319 319 318 318 321 325 325 324 326 326 326 326 323 319 317 317 320 320 318 318 317 316 317 316 317 315 313 315 316 316 315 317 320 315 311 315 319 322 322 323 327 319 312 314 311 306 311 314 312 315 316 317 320 315 312 320 323 319 316 317 320 320 317 319 318 316 315 306 299 301 300 296 296 296 296 296 295 295 295 294 294
318 317 317 317 318 318 318 319 319 317 319 323 325 325 325 325 322 321 324 321 317 317 322 326 323 319 319 318 319 319 318 318 315 315 317 316 317 317 317 320 315 310 312 313 315 319 319 324 321 311 313 313 308 313 317 311 310 315 317 315 314 318 321 319 319 322 321 322 323 319 315 315 318 318 313 310 309 303 298 297 296 296 296 295 295 295 294 293
316 316 317 317 317 318 318 319 318 318 321 324 324 323 324 325 322 321 321 320 321 322 324 328 326 323 321 320 322 320 317 318 315 316 319 317 318 317 314 318 315 312 313 311 315 320 316 320 323 313 311 313 312 314 319 316 311 311 312 310 313 318 321 320 319 320 321 321 323 320 315 316 318 317 320 320 312 302 299 298 297 296 295 295 295 294 293 293
314 317 318 314 315 317 317 317 317 319 323 324 323 321 322 322 323 323 321 320 323 322 324 330 329 326 324 322 322 321 319 319 316 317 321 318 318 317 314 318 317 314 314 311 314 319 315 317 323 316 310 313 316 317 317 316 314 313 314 314 314 314 317 320 317 317 321 322 323 321 317 319 318 312 316 318 308 299 299 298 297 296 295 295 295 294 293 293
313 319 317 311 313 316 316 316 318 321 323 324 323 321 321 321 322 323 320 319 321 319 321 328 328 327 326 323 323 322 321 322 318 319 321 318 319 319 315 317 317 314 315 314 315 318 316 318 323 320 315 317 320 314 311 312 313 314 316 316 317 316 317 319 317 316 317 319 321 321 318 320 316 307 308 311 305 300 298 298 298 297 296 296 295 294 293 293
316 320 314 310 313 314 314 317 318 320 322 323 323 321 320 320 322 322 320 319 321 320 320 324 326 326 326 324 324 324 324 324 321 321 322 320 321 321 315 313 316 317 319 318 317 317 317 319 322 322 320 319 316 309 306 309 311 312 315 316 317 317 318 320 319 318 317 315 315 317 318 318 311 303 305 307 304 301 298 298 298 297 297 296 295 295 294 293
317 317 311 309 312 313 316 320 319 320 321 321 322 321 320 320 321 320 319 319 320 320 321 323 323 323 323 323 323 323 324 324 321 321 323 322 321 317 314 314 317 319 321 320 317 315 316 318 319 320 320 317 314 310 308 308 311 313 315 316 316 317 319 318 317 318 319 317 316 316 318 316 308 303 304 304 302 301 299 298 298 297 297 296 296 296 294 293
314 313 310 310 310 312 317 320 320 321 321 319 320 320 319 319 320 320 319 319 320 321 322 323 321 320 322 322 322 322 322 322 321 320 321 322 318 311 310 314 315 317 319 320 320 319 318 319 319 320 322 320 318 317 315 313 315 316 316 314 314 318 319 316 315 316 317 317 318 317 318 317 310 303 302 301 301 301 298 297 298 297 297 297 296 296 295 293
312 311 311 310 309 311 314 316 318 320 320 320 320 320 319 318 318 319 319 320 321 321 322 321 320 320 321 319 319 320 320 321 323 320 318 319 314 309 309 311 312 317 318 317 321 323 321 319 319 320 322 322 321 320 318 318 317 316 315 314 313 316 317 316 316 317 316 316 316 316 318 317 311 305 304 304 303 304 301 298 297 298 298 297 297 296 296 294
312 312 311 311 310 311 312 312 313 317 318 319 319 319 320 319 317 316 318 319 319 319 320 319 318 319 319 318 318 319 318 318 321 320 318 319 315 310 308 307 309 314 315 314 318 321 318 316 316 319 320 320 321 320 316 317 319 318 317 316 315 314 313 315 317 317 317 316 315 315 317 317 314 310 309 308 307 307 305 300 298 298 298 298 297 297 297 295
311 310 310 312 312 312 311 311 312 314 316 317 318 317 318 319 317 316 317 317 317 317 318 318 317 319 320 317 318 319 318 317 318 318 318 319 316 310 305 306 307 310 312 312 313 315 315 314 315 316 317 317 318 317 314 314 316 317 316 315 314 312 311 313 315 316 317 317 316 316 315 316 316 312 312 313 309 307 306 302 299 298 297 298 298 298 298 297
308 309 309 310 312 311 311 311 311 312 313 313 314 314 316 317 317 317 317 316 315 317 318 316 316 319 319 317 319 319 317 317 317 316 316 316 315 311 308 307 306 307 310 310 309 313 316 316 315 314 315 315 314 313 313 312 312 313 314 314 312 311 310 311 312 313 315 316 315 314 313 314 314 312 312 314 311 309 308 304 300 298 297 298 299 299 299 297
305 306 306 306 309 309 309 311 312 312 311 311 311 312 313 314 315 316 317 316 315 316 317 316 316 317 317 317 318 317 316 318 317 315 315 315 314 314 313 312 308 305 308 309 308 311 314 316 315 313 313 312 309 308 309 310 311 311 312 313 312 310 308 308 310 310 310 312 311 309 309 310 310 309 312 313 309 307 306 303 300 299 299 300 301 301 300 297
305 306 305 305 306 306 308 310 311 310 309 309 311 311 311 312 313 315 316 316 316 315 316 316 315 316 317 316 316 315 315 317 317 316 316 315 314 313 314 316 312 306 306 309 308 309 311 314 312 311 313 310 304 303 305 306 308 310 311 312 310 309 307 306 308 307 307 308 308 307 308 308 306 307 309 309 307 305 305 305 304 302 301 301 302 301 300 298
299 299 301 306 307 306 307 309 310 310 309 310 311 311 311 311 312 314 315 314 315 316 316 316 315 315 315 315 315 314 313 315 318 318 316 315 315 314 314 316 314 309 308 308 309 309 310 310 308 310 315 311 302 302 303 303 304 306 308 308 306 307 308 306 306 307 307 308 308 307 308 307 305 305 304 305 306 305 305 305 304 303 301 301 302 302 300 298
296 296 299 306 308 306 306 308 309 310 310 310 311 311 312 312 311 313 314 312 313 313 313 315 316 315 315 315 315 314 314 314 313 310 309 311 312 312 313 312 311 311 310 307 308 309 309 310 310 311 315 310 302 301 303 304 306 308 307 306 304 304 305 304 304 305 305 306 307 307 307 305 304 304 302 302 304 303 302 302 302 303 302 300 300 300 299 298
Wind_Speed
4 3 3 2 2 3 3 3 3 3 2 2 2 3 3 3 4 4 4 4 5 6 6 7 7 8 8 9 10 12 14 15 15 13 8 4 2 6 4 1 1 0 1 3 4 4 3 4 4 5 5 3 4 3 3 3 3 5 4 3 1 2 3 5 6 6 3 3 5 4 4 0 6 5 4 3 2 3 4 4 5 6 5 6 6 10 13 13
5 4 3 3 3 4 4 4 3 3 3 3 3 3 4 4 4 4 4 5 5 6 6 7 7 8 8 9 10 12 15 15 14 11 5 2 4 8 4 2 2 2 2 2 4 3 3 1 2 6 6 3 3 3 3 3 3 4 3 2 2 6 5 5 7 5 3 2 4 4 2 1 5 4 3 4 6 6 6 7 3 5 9 8 8 10 13 12
6 5 4 4 4 4 4 4 4 4 3 4 4 4 4 4 4 4 5 5 6 6 7 7 7 7 8 9 10 12 15 13 9 4 1 2 6 7 4 3 3 4 3 2 3 2 4 4 3 5 4 3 2 3 3 3 2 2 4 1 5 6 4 4 5 6 5 1 3 5 2 1 5 3 1 3 7 7 5 6 3 4 8 10 9 11 15 13
7 6 5 5 6 7 6 5 4 5 4 5 5 4 4 5 4 4 5 5 6 6 7 7 7 7 8 9 9 11 12 9 4 1 3 4 7 6 4 3 3 4 3 2 4 3 5 6 6 5 4 2 3 3 2 2 1 2 3 3 5 3 2 5 6 6 5 2 3 2 3 5 5 2 1 0 5 10 5 4 5 5 7 9 9 12 15 16
9 8 6 6 7 8 6 5 5 5 5 5 5 4 4 5 5 5 5 5 6 6 7 8 8 8 8 9 8 9 8 6 2 2 2 4 6 5 2 2 3 3 3 3 5 5 5 5 6 6 4 2 3 4 1 2 2 1 2 5 5 3 2 5 5 5 3 2 1 2 5 6 3 1 3 3 3 7 1 3 6 3 4 4 6 9 13 16
10 9 8 8 7 7 6 5 5 5 6 5 5 5 5 6 6 5 5 5 6 7 8 8 9 8 8 7 6 4 4 1 4 2 3 4 5 4 2 2 3 3 4 4 5 5 4 6 6 3 3 2 1 1 1 2 2 1 3 2 3 4 4 5 1 3 3 2 2 3 3 2 4 6 3 5 7 5 2 0 1 5 6 8 10 9 10 11
10 9 8 8 7 7 7 6 7 6 6 6 5 5 6 6 6 6 6 6 7 7 8 8 9 9 7 5 3 3 3 4 7 5 6 6 6 4 2 3 3 3 5 5 5 5 4 5 4 3 4 2 1 2 1 2 3 2 3 4 2 4 5 5 2 1 2 2 6 2 3 4 4 6 3 2 4 4 5 6 9 11 12 13 12 10 9 10
9 9 8 8 8 8 7 7 7 6 6 6 5 6 6 6 7 7 7 7 7 8 9 8 8 7 5 2 0 3 2 6 7 6 7 6 6 5 4 3 3 4 6 5 4 5 4 4 3 4 3 0 3 2 1 1 3 3 4 3 1 2 6 6 5 6 4 6 5 0 5 8 6 3 3 5 4 5 5 9 9 10 13 14 11 10 10 11
9 9 8 8 8 8 8 7 6 6 6 6 6 6 6 7 7 8 7 7 7 8 8 7 7 5 3 1 5 3 4 5 5 4 5 6 7 6 6 4 4 5 6 5 4 6 4 3 4 4 3 2 4 2 1 1 2 4 5 3 2 4 6 5 6 6 4 4 2 1 8 7 3 1 2 4 4 4 6 10 7 9 12 11 10 10 10 10
10 9 8 7 8 8 8 7 7 7 6 6 6 6 6 7 7 7 7 7 7 7 7 6 5 3 3 3 6 0 4 2 2 3 3 5 6 6 6 4 4 5 6 5 5 7 4 5 5 4 4 2 4 2 1 3 2 3 3 3 4 6 6 4 6 5 1 4 4 4 9 6 3 2 1 4 5 3 8 10 8 10 11 9 9 8 11 12
10 10 8 7 8 9 9 8 8 7 7 6 6 6 6 7 6 7 7 7 6 6 6 5 4 3 4 4 5 4 4 2 2 2 2 4 4 5 5 4 4 5 6 4 5 7 4 7 8 6 2 2 3 1 1 3 2 2 0 5 6 7 7 5 7 6 1 3 4 7 6 4 3 1 3 5 6 5 10 9 9 11 9 8 8 8 10 12
9 10 11 10 9 9 9 9 8 7 7 5 5 6 6 6 6 6 6 6 6 6 5 3 3 5 4 2 4 8 5 2 3 2 2 3 5 5 5 4 3 4 5 3 4 7 4 6 9 5 2 3 3 0 2 2 2 2 3 5 8 8 7 6 4 3 0 1 4 6 2 5 3 2 2 4 3 7 11 9 8 9 7 7 7 7 8 12
8 10 12 13 11 9 9 9 7 7 6 5 5 5 5 6 5 6 5 5 5 4 3 2 3 6 4 1 5 10 10 7 5 3 3 4 6 5 4 4 4 3 3 2 2 5 5 7 8 5 2 5 1 1 2 3 3 2 3 2 6 8 7 6 1 3 2 1 3 3 2 6 6 3 3 5 2 7 10 8 7 7 6 7 7 7 7 12
9 11 13 13 11 10 10 9 7 6 5 5 5 5 5 5 5 5 4 4 4 3 2 1 5 6 3 3 5 6 9 9 8 6 5 7 7 6 4 3 4 3 2 3 4 4 4 6 7 5 2 3 1 1 4 6 3 2 2 2 3 2 5 6 1 1 2 1 2 3 2 7 8 1 5 7 3 7 8 6 6 6 6 6 6 7 7 10
11 12 13 13 11 10 10 9 8 6 5 5 5 5 4 4 4 4 3 3 2 0 1 3 7 6 2 5 6 4 6 7 8 9 8 8 7 4 4 5 5 5 5 6 6 6 6 7 6 4 0 2 3 3 3 5 4 3 1 3 3 2 5 9 3 2 1 2 4 4 3 6 8 1 5 8 4 9 9 6 7 7 7 7 6 7 6 7
11 13 14 12 10 10 10 9 8 6 4 5 5 4 3 3 2 2 1 1 2 3 4 4 6 5 1 3 2 2 5 5 7 9 10 9 6 4 7 8 7 7 7 6 6 7 7 6 4 2 1 2 4 4 3 4 4 3 0 4 3 2 4 7 4 0 1 1 4 2 2 4 6 1 6 9 6 10 9 7 7 7 7 7 6 6 6 6
12 14 14 11 11 10 10 10 7 5 4 5 4 3 2 1 0 1 2 4 5 5 5 4 5 3 1 2 1 3 3 5 6 8 10 8 6 7 9 7 5 7 7 5 5 4 5 4 1 0 2 3 3 5 3 3 4 3 1 3 4 3 3 4 4 4 5 3 2 3 1 5 9 3 8 11 7 10 9 6 6 6 6 6 5 6 6 7
12 13 14 14 13 11 11 10 7 5 3 4 5 2 1 1 2 3 5 6 6 6 4 1 3 1 3 2 2 2 2 4 6 7 9 7 6 9 8 5 5 7 6 4 3 2 2 3 2 1 3 2 3 5 3 5 5 4 3 3 4 3 4 5 5 3 6 5 3 3 3 8 11 6 9 9 7 9 8 5 5 5 6 5 5 6 6 7
13 14 16 18 15 12 11 9 7 4 2 5 4 1 3 2 1 2 4 4 3 2 1 3 3 2 3 3 1 2 5 6 6 6 8 8 9 9 7 6 7 7 5 2 1 1 1 3 3 1 1 3 5 7 9 9 7 7 5 5 4 4 5 5 5 4 2 4 5 5 6 8 10 6 7 7 6 8 6 5 5 5 5 5 5 5 5 6
17 17 19 20 17 14 12 9 6 3 3 6 2 3 3 2 1 2 2 2 5 5 2 5 7 2 2 1 2 6 6 5 4 4 8 10 11 10 6 4 6 5 3 4 2 1 3 3 3 5 6 7 9 11 9 4 4 5 3 3 4 5 5 5 5 5 0 0 6 5 4 7 8 4 5 5 5 7 6 6 5 4 5 4 5 5 5 5
19 19 20 19 18 15 12 10 6 4 5 6 4 3 2 4 2 2 3 4 9 10 6 5 6 5 4 2 6 8 5 2 1 3 9 10 10 8 1 2 4 1 1 3 3 2 3 4 8 9 7 7 7 8 5 1 3 2 2 2 4 4 6 6 4 5 1 2 5 1 2 9 5 3 5 4 5 5 4 4 4 4 4 4 5 5 5 4
19 20 21 20 19 16 13 9 6 4 7 6 5 4 3 3 2 1 1 2 8 11 9 6 3 6 6 3 6 7 3 1 1 1 9 8 5 5 1 4 5 3 1 2 3 2 1 4 11 9 4 4 2 3 4 4 3 1 1 1 5 3 3 6 4 4 3 2 4 3 4 7 1 4 4 5 5 4 4 4 4 4 4 5 5 5 5 5
21 21 23 21 19 17 12 9 5 5 9 8 7 7 4 2 1 1 2 0 5 4 5 5 4 6 6 4 6 7 3 4 3 4 10 9 3 3 4 4 4 3 2 4 5 4 3 6 10 7 6 5 1 4 7 4 2 3 4 3 5 2 0 4 3 4 3 1 2 3 5 6 1 4 4 5 4 4 5 5 5 5 5 4 4 4 5 6
23 23 24 21 19 17 12 8 6 8 12 12 12 10 4 2 3 3 1 0 4 4 4 6 5 5 6 4 8 10 4 4 3 4 12 11 4 3 4 5 5 3 4 7 7 6 6 6 2 3 6 7 4 3 6 4 2 4 5 6 5 4 5 6 3 4 4 3 2 2 4 5 1 1 2 3 3 4 4 5 6 5 4 4 4 4 5 5
27 26 25 22 20 17 13 7 9 13 13 10 13 12 7 4 5 4 1 2 3 5 3 4 3 4 6 5 8 10 2 2 3 4 10 11 7 4 2 2 4 5 6 5 5 5 7 4 3 4 3 5 6 4 5 7 3 4 5 9 10 7 7 5 2 4 4 4 3 3 3 5 4 3 3 3 3 3 3 4 5 4 4 4 4 5 5 5
27 26 24 22 20 18 12 6 11 15 11 8 11 11 10 8 7 5 3 3 4 4 1 3 4 5 8 5 5 6 2 3 2 2 7 8 6 5 2 1 1 3 6 5 3 3 4 2 2 4 4 5 5 5 5 7 4 2 4 8 9 7 5 4 2 2 0 2 2 3 1 4 5 5 3 4 4 4 3 4 4 3 4 3 3 4 4 4
26 25 24 23 21 21 12 4 10 13 7 7 11 12 12 10 9 5 2 3 5 3 4 2 1 5 7 3 3 6 2 3 2 3 3 4 2 3 3 4 2 1 4 4 0 3 2 2 3 4 5 5 5 5 6 8 7 3 4 4 6 6 6 5 5 4 3 2 3 3 2 3 4 4 2 4 5 3 2 2 2 2 3 3 3 3 3 4
24 24 24 23 23 25 14 3 10 14 6 6 13 15 13 12 9 3 3 2 5 2 4 1 1 3 3 1 3 5 2 0 4 1 1 3 1 3 2 6 6 4 3 5 4 4 2 3 3 6 5 5 6 5 8 10 5 4 3 6 6 6 6 5 6 3 1 2 4 4 1 1 5 4 2 2 2 1 2 3 2 1 1 1 2 3 3 3
24 24 24 24 23 26 19 8 10 12 8 10 15 16 14 12 7 4 3 4 2 2 2 1 2 2 2 3 3 3 1 2 2 2 2 3 1 3 3 5 6 6 1 2 5 3 1 3 5 7 5 6 4 2 7 9 4 3 5 6 5 5 5 4 5 3 2 1 4 6 3 2 5 4 1 1 2 4 5 5 4 3 3 1 0 1 2 3
24 24 25 23 23 25 22 17 15 10 8 14 17 16 15 9 3 4 3 5 1 1 0 2 2 1 5 6 1 1 2 2 1 2 3 1 3 5 2 2 6 5 1 4 1 3 1 1 2 4 4 5 4 2 2 4 4 5 6 6 6 5 5 4 2 4 3 2 6 6 4 3 3 5 2 2 2 4 5 4 4 4 4 4 3 1 1 2
25 25 26 25 26 26 18 14 19 14 11 17 19 16 11 3 3 4 7 3 2 1 2 2 1 3 7 7 3 1 3 2 1 3 2 1 2 4 2 2 4 4 2 3 3 4 3 1 1 2 2 4 6 5 3 2 4 5 4 4 3 3 4 4 4 3 1 5 5 4 2 4 3 4 3 4 3 2 4 5 7 7 6 5 5 3 2 0
26 26 27 27 28 28 17 11 18 17 14 19 18 10 5 2 1 7 5 1 1 3 4 3 2 4 6 4 3 3 4 1 0 3 4 3 3 3 2 3 4 3 2 4 2 3 2 4 2 1 1 4 5 4 4 4 4 4 4 5 3 2 3 3 3 0 3 5 3 2 1 3 5 5 3 4 3 2 3 4 7 9 9 7 6 5 3 1
28 26 26 26 27 28 22 14 16 19 19 20 14 3 2 4 7 9 7 2 2 2 4 4 2 5 7 4 2 3 3 2 3 3 2 3 3 4 3 2 5 4 1 4 2 0 2 4 1 2 2 3 7 5 2 1 1 4 5 4 3 2 2 1 3 2 3 3 2 2 1 1 5 4 3 4 4 4 4 5 7 9 9 8 7 5 4 3
29 27 26 27 28 29 27 20 16 22 25 19 10 2 3 6 7 7 9 6 1 2 3 4 5 6 6 4 3 4 3 2 4 5 2 3 3 4 4 3 3 3 3 3 3 4 2 4 3 5 2 3 7 5 5 6 4 3 4 5 4 4 4 3 4 3 3 2 2 2 1 3 4 1 2 5 4 3 3 4 6 7 6 6 5 4 4 4
28 28 26 27 30 32 32 26 20 25 27 14 6 6 8 10 5 4 8 5 2 2 3 3 6 6 3 2 2 4 4 2 4 5 3 4 4 4 4 5 6 4 3 3 2 2 3 5 5 2 1 4 6 3 4 6 3 1 2 4 2 4 4 2 3 4 3 2 3 2 2 4 4 1 2 3 3 3 2 2 7 7 5 5 4 4 4 4
27 27 26 28 33 35 35 31 27 29 23 9 6 10 10 8 4 3 4 4 4 6 6 3 3 4 3 2 2 5 3 1 4 4 2 3 4 4 4 5 7 8 5 4 3 2 2 4 5 1 1 2 3 3 3 3 3 2 2 3 4 3 6 3 1 1 3 1 3 2 2 3 1 1 3 2 3 3 2 3 6 7 6 6 5 5 5 5
28 25 23 27 33 36 37 34 32 29 16 5 8 10 6 3 3 3 3 3 5 8 9 4 3 4 5 4 4 6 3 2 3 4 3 3 3 5 5 4 5 11 10 4 2 3 4 2 4 1 2 1 0 3 4 3 3 5 3 5 3 2 4 3 1 2 3 3 4 0 3 3 1 1 2 1 1 2 3 4 5 6 6 6 6 6 6 6
26 20 15 23 36 38 36 38 35 23 7 3 9 9 3 2 2 2 1 3 5 6 6 5 4 4 5 5 4 5 6 4 4 4 4 3 3 4 6 4 4 9 10 5 1 2 4 1 5 0 2 1 3 3 3 5 3 5 4 3 3 2 1 2 2 1 1 3 4 2 2 3 4 4 2 4 7 7 6 6 7 8 8 8 8 8 7 6
19 10 5 16 32 36 36 38 30 14 3 5 9 8 3 1 3 2 2 1 3 5 6 5 3 2 4 6 4 5 6 6 6 5 3 3 3 3 4 3 3 3 4 5 4 2 3 2 4 2 1 0 3 2 3 2 1 3 1 1 2 2 3 2 2 2 2 2 3 4 2 3 5 5 6 9 10 10 10 9 10 11 10 9 9 9 8 7
9 4 1 8 22 30 34 30 18 6 5 8 9 6 2 1 3 2 2 2 0 2 4 5 4 4 4 4 4 4 4 5 7 5 3 4 3 3 2 2 4 2 0 4 4 2 2 2 3 3 2 2 1 2 5 6 3 2 2 3 1 0 2 1 1 2 3 2 2 3 5 5 4 3 6 7 8 11 13 12 11 10 11 11 10 8 8 7
4 2 1 4 15 25 25 16 7 5 6 8 10 8 4 2 2 2 1 1 1 1 1 3 4 4 4 4 3 4 4 4 6 4 3 4 3 2 2 2 4 4 3 4 3 2 2 3 3 2 1 3 4 4 3 4 3 3 4 5 5 4 3 2 3 1 2 2 4 3 6 6 3 2 3 4 5 9 11 11 11 11 13 13 10 9 9 9
2 3 2 5 15 23 16 5 3 4 4 6 6 5 4 3 3 4 2 1 2 1 1 2 3 3 3 3 2 3 5 4 4 4 3 4 4 3 2 2 3 5 5 3 3 2 2 3 2 3 3 5 5 3 3 4 2 3 2 3 4 4 4 5 6 3 2 1 2 2 3 5 2 2 3 3 4 6 7 8 9 10 12 11 9 9 9 9
2 2 4 7 15 18 10 4 5 5 4 3 3 2 3 4 4 4 4 2 1 1 1 1 1 2 3 2 2 4 4 3 4 4 2 3 3 2 4 5 4 5 5 3 2 1 1 2 1 2 2 2 3 2 1 2 2 2 1 1 4 3 2 4 4 2 3 3 2 2 3 4 2 2 3 3 3 5 6 8 9 9 9 10 10 10 9 9
1 2 3 5 8 9 5 3 6 6 4 3 4 3 1 1 4 6 6 6 3 2 2 1 1 1 2 3 3 5 6 3 3 3 2 3 3 1 2 4 3 3 3 3 4 2 1 2 2 1 1 2 2 1 1 1 0 2 1 0 1 2 4 2 1 2 2 5 6 4 6 5 1 1 1 1 3 4 6 7 8 8 8 8 9 9 9 8
2 1 1 2 3 3 2 1 2 4 4 5 7 7 3 1 2 3 5 6 3 3 3 2 2 2 2 3 3 3 5 4 2 3 2 3 2 1 1 2 2 3 1 3 7 5 2 2 3 3 5 4 2 2 2 1 0 0 1 2 3 4 5 3 2 3 5 4 7 6 7 5 2 1 1 1 3 4 6 6 6 6 6 8 9 9 8 7
2 1 0 1 1 1 1 1 2 1 2 4 5 6 7 5 1 1 3 4 3 3 3 0 2 3 2 4 4 4 5 3 1 3 4 4 2 1 1 1 0 2 3 4 5 5 3 2 3 6 7 6 5 5 3 4 3 3 5 6 7 7 7 5 3 4 5 3 4 7 4 1 3 2 3 3 3 5 6 6 6 7 7 9 10 8 6 6
2 1 2 1 0 1 1 1 2 1 0 2 2 2 5 6 2 0 1 2 2 3 2 1 2 4 4 6 5 5 6 4 3 3 3 3 2 1 1 1 1 2 5 3 0 3 4 3 7 10 12 11 8 5 4 5 5 8 9 9 10 8 7 8 8 6 5 4 7 7 5 4 7 6 6 7 6 6 6 7 8 9 8 8 6 5 5 6
1 1 1 0 0 2 3 3 3 2 0 1 1 0 2 4 4 2 0 1 1 2 1 1 1 3 5 6 5 4 4 4 4 4 2 2 2 1 1 1 1 1 4 2 2 3 5 4 6 9 12 10 3 2 4 5 4 4 6 8 9 8 9 11 10 7 6 7 9 3 7 8 9 5 7 8 7 7 8 8 8 7 5 5 5 5 6 6
1 1 1 1 1 1 2 1 3 4 4 2 1 2 3 5 5 3 1 2 1 1 3 2 4 4 4 4 3 3 3 4 3 3 3 2 3 3 1 1 0 1 3 3 0 1 3 3 3 5 7 5 2 1 2 3 3 2 5 9 9 9 9 8 7 5 5 6 7 1 4 10 7 4 7 7 5 5 4 3 3 4 5 6 6 6 7 6
2 1 0 2 1 0 2 1 3 3 4 3 3 4 4 5 5 2 1 3 3 2 4 7 7 5 5 5 5 5 6 5 4 4 5 4 2 2 2 2 2 1 1 3 2 1 2 2 2 3 3 2 1 0 1 2 3 3 8 12 7 5 6 6 5 3 1 4 7 5 8 11 5 5 5 5 3 3 4 4 4 5 5 6 6 7 7 7
3 2 2 2 1 1 0 0 3 3 3 4 4 3 4 6 6 3 0 2 4 4 6 9 7 4 4 6 9 11 10 7 5 5 7 6 4 4 4 4 6 5 3 3 2 2 4 2 2 3 4 3 1 3 3 3 2 3 13 15 8 6 6 5 4 5 6 7 8 6 9 10 3 4 3 4 4 5 7 7 5 5 5 6 7 8 8 8
4 3 2 3 1 2 3 2 3 3 3 4 5 4 4 5 5 6 2 2 1 2 3 7 7 4 4 7 10 10 7 5 3 2 2 2 1 1 2 3 6 7 7 5 2 2 4 4 2 3 4 2 2 4 4 4 2 7 12 11 10 10 7 2 3 7 9 8 6 7 9 7 2 4 4 6 6 7 7 6 5 6 5 6 7 8 8 8
Wind_Direction
312 298 285 283 283 289 285 274 263 266 274 276 283 281 283 286 286 293 296 305 312 315 319 318 324 328 331 335 334 336 334 329 326 321 313 311 223 176 178 180 98 105 208 175 169 150 89 44 29 31 44 41 8 342 359 14 62 53 80 92 40 193 197 184 183 193 177 285 277 329 27 59 294 309 316 318 28 352 326 300 272 283 269 247 282 315 323 322
302 289 277 276 276 288 287 276 265 264 270 270 275 271 270 279 287 293 289 297 305 308 313 315 321 323 328 333 333 338 336 329 324 318 316 323 180 176 184 165 119 129 154 168 172 131 102 68 28 47 47 40 345 343 6 5 58 80 115 94 240 204 210 198 179 194 193 279 270 294 335 200 252 279 355 314 305 353 339 296 291 295 297 307 312 331 334 334
295 283 267 266 264 267 266 267 263 254 263 265 265 270 273 280 286 291 289 292 297 303 307 308 313 317 326 329 336 343 337 333 327 320 34 114 162 171 177 162 129 141 158 152 162 99 101 144 87 60 46 49 352 350 27 8 22 125 119 87 247 214 238 237 195 210 219 283 293 288 336 229 250 248 4 302 298 321 297 278 304 297 303 312 318 351 353 354
287 277 262 262 262 262 256 255 259 251 254 258 262 270 274 278 281 286 291 294 295 297 296 299 304 311 321 325 339 343 342 349 322 218 108 135 157 164 166 156 128 148 175 126 140 105 90 107 75 59 60 42 339 0 33 333 8 124 133 180 229 199 264 246 204 224 234 209 238 278 353 307 273 194 218 20 322 307 283 235 239 254 285 301 324 4 16 22
283 278 267 263 264 269 261 248 254 251 250 255 259 263 264 271 276 280 289 296 293 291 292 296 300 307 318 323 339 344 0 20 277 214 137 159 162 169 170 159 144 164 176 121 128 114 90 85 64 54 58 34 342 20 360 300 80 138 214 192 191 155 253 255 201 212 210 152 243 312 324 296 300 204 203 169 253 281 360 188 223 258 305 333 4 12 26 32
277 276 270 268 269 267 261 253 256 253 251 254 257 258 259 265 269 275 286 296 295 294 296 297 300 308 316 322 334 359 48 28 252 219 225 204 183 185 190 196 167 180 180 134 123 112 80 57 55 61 53 36 354 33 253 313 57 184 271 255 208 175 223 271 211 195 154 77 276 262 290 307 338 308 229 192 235 253 26 201 149 50 48 65 52 34 32 31
276 275 270 271 274 265 256 253 256 253 251 253 258 260 263 271 274 280 292 302 301 300 299 299 302 305 315 320 323 27 81 247 260 246 248 225 205 211 217 221 184 201 193 149 120 114 88 67 76 124 86 39 207 208 248 348 44 139 262 301 263 185 217 261 301 259 158 242 255 243 323 302 284 293 308 275 268 308 360 44 72 68 60 61 53 40 35 30
272 272 271 271 272 269 260 253 254 254 253 254 261 265 273 285 284 288 299 306 304 299 297 297 299 303 313 309 125 15 353 247 260 253 243 226 223 234 238 229 207 218 195 177 156 138 115 108 153 150 100 269 177 169 181 14 30 157 224 271 259 211 245 271 294 285 261 248 254 359 291 270 238 234 318 318 356 9 28 56 63 66 56 51 48 37 31 28
266 270 274 276 273 271 267 259 253 252 253 255 262 266 278 290 291 295 300 305 302 293 293 293 291 288 279 135 94 11 276 235 254 250 233 228 238 242 235 225 221 220 181 187 182 155 162 168 187 178 157 190 162 164 178 180 277 209 204 242 271 284 288 293 285 269 252 244 187 225 279 282 268 224 298 308 355 20 57 55 40 56 53 44 42 34 30 27
264 271 271 278 282 280 275 264 250 248 252 254 262 271 282 291 296 300 303 303 298 289 292 287 278 257 215 139 95 292 254 211 261 244 223 227 236 232 225 228 232 214 170 169 174 158 174 192 181 148 138 141 154 165 138 161 205 194 195 258 263 290 302 283 275 274 241 254 195 212 273 288 307 328 231 300 335 17 67 50 34 55 51 41 40 32 31 29
262 272 274 281 287 286 283 272 254 247 252 254 266 277 286 297 303 306 307 303 299 295 295 284 266 228 184 138 134 217 248 234 264 260 231 216 218 220 218 228 225 203 176 159 186 185 177 179 152 117 136 167 147 117 255 199 134 126 341 307 292 314 306 261 273 288 263 264 188 179 256 298 331 350 221 292 343 46 74 54 37 51 45 39 38 32 33 28
258 269 276 282 287 287 283 274 260 251 255 256 269 281 290 300 304 306 308 304 303 302 298 289 246 196 150 110 202 227 239 226 242 264 252 206 197 205 197 194 184 190 195 173 205 205 193 178 145 119 205 156 134 336 233 211 65 55 41 334 305 342 324 274 279 308 151 227 164 156 281 312 279 205 248 319 28 69 71 58 40 47 39 35 34 34 35 25
248 264 272 276 279 282 280 273 263 255 255 254 267 279 288 298 306 307 310 308 307 308 303 286 211 176 138 300 239 233 237 237 245 254 236 195 179 175 160 164 172 182 208 195 193 189 192 190 153 133 135 116 153 219 103 50 32 320 35 25 314 350 326 287 32 16 353 194 158 147 289 288 265 235 328 337 58 74 62 54 42 42 34 34 30 29 31 23
243 260 268 273 276 279 277 267 256 252 251 256 268 279 289 302 306 306 313 310 310 302 295 183 174 158 132 253 260 252 242 240 245 240 207 183 164 146 137 144 165 162 154 141 132 134 157 168 136 108 90 89 163 141 45 12 14 322 341 27 351 342 285 293 319 29 335 329 88 116 204 266 274 320 14 338 17 89 75 54 44 44 35 32 29 29 27 22
240 251 257 266 275 279 271 257 247 241 246 263 274 287 298 306 308 316 323 310 318 292 140 133 157 141 77 275 267 262 241 231 226 217 194 179 166 146 141 138 136 125 123 123 112 99 111 134 113 95 181 4 59 86 15 348 9 23 320 305 340 193 267 309 305 182 212 328 42 103 192 274 277 250 36 349 24 95 85 58 45 44 37 34 30 28 23 16
241 251 257 267 278 275 260 250 240 229 246 271 281 295 302 306 310 325 341 42 94 104 100 122 149 129 64 269 250 232 229 219 209 204 193 189 196 177 144 132 121 118 122 112 105 98 86 89 81 85 149 49 72 87 43 358 337 354 155 251 273 212 276 321 323 336 15 4 26 44 210 285 279 211 41 10 40 82 78 62 49 44 38 37 32 28 27 17
243 252 260 271 283 274 252 243 229 220 253 274 284 292 291 285 222 125 109 104 101 92 83 118 139 111 273 230 217 253 224 199 194 192 192 195 200 173 145 126 109 112 110 94 103 98 49 48 70 4 48 65 102 97 61 325 287 305 34 230 249 219 238 303 307 348 27 57 24 1 216 262 275 303 29 15 38 76 77 67 54 49 43 39 36 33 29 22
247 254 260 269 281 276 254 240 220 219 263 291 298 291 235 196 164 142 138 121 93 68 51 95 122 82 269 218 201 229 146 163 170 169 179 175 167 161 145 126 116 107 86 56 62 75 22 28 76 65 25 50 125 112 148 230 222 214 194 205 249 235 225 264 274 314 18 18 350 332 275 267 277 312 25 13 31 74 81 73 67 56 48 42 38 38 31 28
248 254 257 263 274 274 256 234 211 211 280 295 294 128 105 88 144 165 157 137 109 106 207 215 161 151 235 237 203 132 111 132 144 151 157 149 149 143 121 108 106 101 93 83 22 76 96 55 70 158 219 184 178 173 198 216 198 191 187 169 197 230 242 244 250 265 357 356 305 265 257 267 276 313 18 3 29 72 77 69 65 51 49 44 41 37 32 35
247 254 253 256 267 271 252 227 205 199 278 274 238 131 117 90 33 279 217 202 215 199 171 193 191 201 255 266 140 133 122 122 133 157 153 150 146 126 94 68 66 66 101 152 176 90 112 127 190 218 210 195 202 204 209 207 145 150 167 166 200 225 263 259 257 283 26 26 274 239 238 265 269 324 5 349 34 62 57 62 61 49 50 41 42 40 29 33
243 251 250 252 264 266 246 221 192 191 261 253 189 164 185 166 154 256 233 248 244 235 245 221 205 247 265 185 161 154 135 97 56 142 159 159 148 138 104 41 86 61 270 160 145 46 91 163 224 233 211 193 204 209 221 255 107 117 195 244 263 229 252 261 255 300 1 167 263 263 294 274 270 18 5 6 50 46 33 63 63 50 52 38 40 35 24 20
241 247 249 254 263 260 238 209 182 211 255 240 199 227 251 208 193 200 160 276 265 238 236 240 234 262 257 206 183 163 126 177 3 188 171 153 142 176 183 77 134 190 250 134 114 44 85 214 239 237 178 131 117 148 173 205 196 217 194 234 275 240 267 283 284 333 14 169 264 348 332 278 278 61 28 39 64 54 39 61 60 54 53 39 36 28 22 25
241 248 250 255 258 250 226 198 188 229 244 226 208 224 254 261 199 109 109 349 291 249 212 213 211 233 236 236 201 170 168 205 203 231 184 155 136 184 140 118 157 152 137 181 169 160 199 243 247 223 150 149 165 117 129 147 195 216 190 199 257 238 267 279 290 338 9 122 270 344 325 286 113 82 58 57 82 84 64 63 57 53 55 43 38 33 29 31
244 250 250 251 249 235 208 196 216 232 234 230 227 225 220 205 169 144 104 20 287 275 224 205 193 204 209 214 189 175 199 208 182 215 182 161 136 144 158 155 146 144 194 200 182 191 230 240 221 118 133 174 196 146 140 157 223 238 208 205 235 226 210 231 283 335 348 18 13 17 327 297 295 86 97 88 96 82 55 58 53 38 39 40 40 39 32 33
245 247 246 245 238 217 194 207 238 229 224 228 233 224 199 186 172 158 102 20 287 287 278 211 195 208 188 156 165 170 175 221 212 210 176 166 148 135 188 160 141 199 201 174 173 226 255 234 132 98 109 159 178 197 183 175 207 282 233 210 222 225 220 236 336 10 7 357 350 27 352 293 316 317 212 164 92 61 38 44 48 27 24 31 35 31 22 27
242 243 242 237 223 200 189 222 233 219 211 221 226 208 191 183 165 158 103 35 279 264 238 194 179 183 172 143 157 145 85 262 241 127 156 171 161 125 149 157 84 210 178 144 161 222 260 276 132 167 166 155 180 230 219 170 145 289 251 208 215 211 193 207 160 94 142 253 315 32 113 260 315 320 238 161 93 59 48 39 30 18 23 29 31 26 18 18
240 239 235 230 211 190 189 233 205 190 190 223 210 188 185 178 169 176 89 4 275 199 137 216 178 154 166 167 154 139 174 248 106 76 129 158 167 91 136 182 133 198 171 126 193 235 193 63 69 154 160 170 199 239 218 162 136 236 247 154 163 174 177 185 158 159 220 246 329 2 134 243 291 293 272 129 111 59 39 26 9 6 11 22 24 20 21 14
234 230 226 227 209 192 195 212 175 177 193 201 183 179 177 171 177 168 86 262 271 111 113 246 90 103 131 93 79 115 194 269 109 225 341 91 151 66 130 204 170 172 170 140 213 260 148 154 183 162 156 193 211 226 188 159 152 240 206 124 131 148 157 146 128 150 289 34 319 301 154 238 269 273 347 90 149 267 250 227 228 239 309 30 41 24 18 8
228 222 222 223 208 198 208 222 187 192 211 174 165 174 167 164 173 80 80 229 246 86 90 127 126 53 73 107 57 67 59 33 111 250 358 81 67 64 147 204 148 141 115 126 210 248 131 223 199 153 160 205 207 229 184 168 185 200 134 99 79 80 87 87 107 120 55 56 249 251 196 199 272 283 345 60 251 246 218 210 207 212 238 231 165 36 24 9
223 220 222 215 204 206 216 230 222 204 189 172 165 164 156 153 136 96 214 233 134 110 146 109 154 132 122 135 116 12 82 39 43 35 26 77 21 33 119 157 99 119 39 13 262 247 330 313 180 147 177 188 150 90 153 162 150 137 107 66 50 40 41 44 56 87 67 279 245 243 216 180 266 280 236 178 216 207 183 177 187 207 230 224 216 208 47 10
220 220 221 207 200 207 210 224 221 198 173 175 162 148 145 112 63 165 219 238 83 131 126 114 210 130 140 148 161 166 103 46 21 93 87 95 46 39 86 124 82 80 11 336 294 304 343 358 251 224 165 127 102 72 45 46 88 109 98 76 71 357 13 25 0 44 111 256 258 263 238 161 210 260 226 192 202 194 186 182 181 191 204 204 204 200 185 355
218 220 220 208 202 206 207 215 209 191 176 169 152 133 134 111 197 210 226 12 154 203 154 162 200 154 154 129 114 153 129 110 111 115 129 132 150 177 169 173 157 86 331 244 249 339 294 231 250 295 185 134 111 83 43 19 41 88 105 94 90 339 6 3 314 301 222 246 257 264 204 172 230 246 209 199 217 226 229 206 184 186 189 189 193 192 174 154
217 218 221 213 206 208 209 209 201 187 173 156 140 100 97 167 217 215 207 206 203 188 131 125 116 135 143 126 150 171 126 160 177 135 137 115 144 219 260 205 159 124 152 200 184 40 287 288 264 141 249 183 149 145 148 171 136 145 147 126 127 118 72 285 270 276 264 251 236 248 168 213 266 260 210 226 244 233 235 230 203 189 185 182 183 178 161 159
215 215 219 214 211 216 211 203 200 187 170 152 141 140 167 209 223 187 188 211 212 74 84 106 104 113 140 158 209 181 136 199 172 130 122 111 129 216 243 241 184 116 97 142 176 172 185 289 214 172 224 188 174 180 158 143 141 175 166 133 143 153 157 216 223 212 250 274 278 275 180 191 217 227 227 245 268 276 260 222 185 174 174 169 159 152 159 173
214 214 218 214 215 222 216 207 207 191 172 157 156 171 195 220 223 163 180 188 139 81 50 78 108 113 168 230 259 203 179 209 166 126 135 157 167 194 196 210 201 158 127 161 216 159 157 256 253 231 244 162 178 199 122 111 119 214 138 111 156 181 154 173 195 174 189 298 295 241 224 217 188 189 300 289 317 346 6 128 148 156 160 153 155 167 178 193
209 212 215 214 216 221 216 211 210 195 178 165 178 186 207 217 188 175 183 151 152 146 113 83 90 112 195 227 233 224 208 157 155 144 164 183 196 201 195 215 197 180 167 161 197 160 127 273 283 350 30 149 178 193 120 124 180 161 127 168 215 182 120 115 234 87 82 270 271 200 240 289 349 312 314 350 4 10 52 130 153 164 166 163 179 191 194 204
202 208 212 213 215 217 214 213 208 198 188 185 199 204 223 222 170 180 185 140 145 139 130 163 189 154 183 196 201 206 185 141 157 161 181 194 214 196 199 242 190 186 196 174 199 198 143 267 286 118 142 282 228 135 71 37 125 124 179 208 191 127 93 102 216 360 43 242 274 234 222 262 223 259 314 14 290 244 204 186 174 177 178 181 197 202 205 208
197 201 210 215 214 213 213 209 201 196 200 218 217 225 227 218 214 189 185 146 133 135 151 185 192 170 179 188 196 185 173 177 172 169 173 189 240 185 172 215 188 194 209 176 161 250 135 228 290 345 152 307 9 96 69 5 64 123 192 189 111 137 151 96 161 239 256 246 286 296 239 239 204 203 212 204 209 204 197 193 191 193 191 193 204 207 208 206
186 182 218 218 212 213 211 202 193 190 216 214 219 228 200 207 255 258 277 278 128 147 174 187 174 149 173 176 169 165 171 173 165 173 174 170 223 197 160 191 182 204 222 163 166 231 118 174 275 318 189 228 26 93 167 232 37 71 90 86 64 157 167 151 154 167 202 239 286 296 292 258 229 201 187 200 197 181 180 192 198 199 195 198 203 200 199 202
163 165 270 202 202 207 202 193 186 189 215 215 219 217 163 196 255 270 297 298 303 167 182 186 168 151 167 168 159 162 160 160 163 175 192 172 186 208 187 157 138 132 68 133 159 184 109 173 240 302 322 163 170 208 191 192 176 125 145 169 194 130 122 193 242 113 136 175 222 279 286 268 252 197 184 203 196 179 182 187 192 197 199 204 206 196 195 201
125 194 251 159 182 190 185 180 188 200 207 219 224 219 195 173 212 249 303 32 40 286 159 152 148 146 157 154 165 174 142 145 168 170 194 191 176 190 195 114 140 151 104 102 163 205 164 162 183 208 199 179 226 246 201 198 194 166 184 190 183 163 127 172 250 194 120 173 183 214 273 273 253 200 194 205 199 193 192 185 185 196 200 202 203 196 198 202
152 190 135 140 170 173 167 168 199 188 212 218 213 212 191 158 165 209 229 61 63 349 58 87 110 135 156 150 155 165 139 144 180 177 191 196 184 179 174 141 141 136 116 129 195 214 148 121 148 203 210 215 248 256 179 195 183 140 192 195 164 154 140 170 222 225 141 199 150 130 269 276 256 215 218 224 213 201 195 190 192 202 202 199 200 199 203 208
189 159 99 130 165 170 169 203 194 186 226 206 155 163 175 168 171 178 196 198 160 134 78 56 137 161 172 159 139 159 165 167 172 172 190 196 190 174 167 176 156 115 113 145 186 210 104 109 165 268 305 307 305 325 128 138 110 136 223 159 149 175 163 176 204 168 157 200 148 121 252 258 260 239 232 238 217 190 191 198 200 204 203 199 199 201 206 208
116 100 78 128 168 181 190 210 197 198 206 167 159 180 173 184 178 166 182 194 176 144 147 157 228 196 162 142 136 164 184 185 169 174 185 181 175 109 147 197 182 130 133 166 162 162 175 143 138 184 293 320 326 338 349 356 114 209 240 236 176 135 94 85 104 107 217 206 157 180 245 243 244 252 205 116 143 177 204 208 206 209 206 200 200 205 208 200
99 76 20 142 168 201 209 189 178 196 189 167 173 180 174 211 207 173 174 173 156 146 154 186 212 161 127 114 102 148 182 185 175 172 168 172 182 16 358 268 205 165 159 150 140 126 133 160 138 178 219 230 210 186 204 235 247 251 239 237 230 183 163 178 155 166 230 201 155 200 244 259 304 309 254 113 132 183 224 220 221 227 210 203 207 210 206 190
117 96 233 138 110 186 197 113 103 159 194 175 173 178 181 184 229 342 166 156 146 142 133 158 160 127 129 146 137 165 195 203 170 147 159 180 213 280 306 330 231 159 115 122 129 104 91 181 197 206 222 231 228 217 174 142 155 204 221 219 220 214 199 186 160 189 207 176 189 224 217 241 284 240 229 247 195 205 228 212 214 228 216 212 214 207 192 181
108 162 170 151 181 180 197 235 190 204 228 164 176 185 179 176 161 21 196 150 141 141 120 26 150 155 173 170 163 180 188 188 176 156 159 175 192 249 245 81 45 112 119 119 181 106 111 216 216 207 225 235 231 217 165 160 195 207 213 219 218 213 194 190 205 205 160 166 241 236 158 183 245 214 201 223 212 214 229 212 211 221 217 212 203 182 175 182
78 159 186 172 358 182 206 220 197 204 255 74 42 310 183 194 185 169 172 48 81 135 125 356 288 194 171 157 159 172 168 172 181 168 148 139 145 132 42 74 64 124 118 98 329 111 133 234 214 195 226 236 207 150 166 179 205 199 205 221 218 209 200 202 218 212 175 212 255 228 151 206 243 214 195 215 209 206 215 211 209 212 200 181 168 177 194 195
90 61 309 344 39 174 231 177 144 199 222 174 177 220 197 210 207 188 117 95 56 257 164 193 250 221 171 145 130 145 170 173 185 183 163 154 153 138 115 151 268 5 117 128 192 136 154 224 184 176 223 222 140 116 189 181 198 199 230 233 218 209 206 203 222 225 208 248 284 320 195 234 243 191 198 221 210 205 228 229 199 193 180 167 175 200 213 207
127 164 150 41 48 78 319 37 128 194 220 186 207 216 188 204 209 184 111 143 166 195 177 200 219 189 168 174 174 206 213 180 169 183 165 157 166 160 184 188 145 62 161 154 169 223 200 191 119 138 201 197 121 91 93 149 191 212 246 244 216 183 198 204 216 212 182 269 273 269 260 262 248 161 195 237 211 204 261 259 224 212 191 180 197 217 222 219
89 61 108 113 161 171 176 79 138 175 211 196 210 198 176 212 205 162 241 224 174 168 180 197 204 156 148 184 200 221 225 197 188 194 172 171 190 192 205 193 153 149 176 172 156 186 200 200 79 123 196 215 167 159 137 98 82 258 255 246 211 179 199 203 204 197 194 224 243 251 258 262 250 134 181 246 225 217 243 244 240 245 216 196 214 226 226 225
92 35 57 104 160 182 170 157 156 189 215 196 201 195 190 217 186 149 199 300 93 139 191 192 186 151 157 201 216 227 219 178 169 175 142 129 110 121 176 170 148 151 168 172 158 159 173 168 133 165 198 207 160 160 138 93 47 268 258 232 200 207 219 211 229 224 211 206 214 232 245 248 193 141 186 237 232 225 239 237 231 241 231 216 227 233 234 233